FW2272 Weather Reports


Display with metric or nautical units.
time (UTC)temp
F
wind
direction
speed
MPH
gust
MPH
rain 1hr
in
rain 24hr
in
rain mn
in
humidity
%
barometer
mb
20260510230720 86 78 6.0 0.0 0.00 0.00 0.00 58 1013.5
20260510230220 86 114 8.0 0.0 0.00 0.00 0.00 58 1013.5
20260510225717 86 73 5.0 0.0 0.00 0.00 0.00 58 1013.5
20260510225217 87 71 9.0 0.0 0.00 0.00 0.00 58 1013.5
20260510224717 87 98 8.0 0.0 0.00 0.00 0.00 57 1013.5
20260510224217 87 78 7.0 0.0 0.00 0.00 0.00 56 1013.5
20260510223717 87 120 9.0 0.0 0.00 0.00 0.00 57 1013.5
20260510223217 87 88 8.0 0.0 0.00 0.00 0.00 57 1013.5
20260510222718 87 91 8.0 0.0 0.00 0.00 0.00 58 1013.9
20260510222217 87 17 7.0 0.0 0.00 0.00 0.00 59 1013.9
20260510221717 87 128 10.0 0.0 0.00 0.00 0.00 58 1013.5
20260510221217 87 280 7.0 0.0 0.00 0.00 0.00 59 1013.9
20260510220716 87 103 9.0 0.0 0.00 0.00 0.00 58 1013.9
20260510220216 87 106 8.0 0.0 0.00 0.00 0.00 58 1013.9
20260510215718 88 190 9.0 0.0 0.00 0.00 0.00 60 1013.9
20260510215216 87 48 8.0 0.0 0.00 0.00 0.00 59 1014.2
20260510214715 87 87 6.0 0.0 0.00 0.00 0.00 58 1014.2
20260510214235 88 172 6.0 0.0 0.00 0.00 0.00 58 1014.2
20260510213717 88 115 3.0 0.0 0.00 0.00 0.00 58 1014.2
20260510213215 88 115 2.0 0.0 0.00 0.00 0.00 57 1014.6
20260510212717 88 115 6.0 0.0 0.00 0.00 0.00 58 1014.6
20260510212214 88 214 7.0 0.0 0.00 0.00 0.00 59 1014.6
20260510211716 88 141 7.0 0.0 0.00 0.00 0.00 59 1014.6
20260510211216 88 114 7.0 0.0 0.00 0.00 0.00 60 1014.6
20260510210715 88 109 9.0 0.0 0.00 0.00 0.00 60 1014.6
20260510210216 88 98 8.0 0.0 0.00 0.00 0.00 58 1014.6
20260510205713 88 150 10.0 0.0 0.00 0.00 0.00 58 1014.6
20260510205213 88 118 10.0 0.0 0.00 0.00 0.00 56 1014.6
20260510204713 88 205 5.0 0.0 0.00 0.00 0.00 59 1014.6
20260510204214 88 316 11.0 0.0 0.00 0.00 0.00 58 1014.6
20260510203714 88 95 7.0 0.0 0.00 0.00 0.00 60 1014.6
20260510203213 87 77 8.0 0.0 0.00 0.00 0.00 60 1014.6
20260510202714 87 94 7.0 0.0 0.00 0.00 0.00 61 1014.6
20260510202214 87 86 11.0 0.0 0.00 0.00 0.00 59 1014.6
20260510201713 87 118 10.0 0.0 0.00 0.00 0.00 60 1014.6
20260510201214 88 110 8.0 0.0 0.00 0.00 0.00 59 1014.9
20260510200717 88 63 11.0 0.0 0.00 0.00 0.00 58 1014.9
20260510200213 88 125 10.0 0.0 0.00 0.00 0.00 58 1014.9
20260510195715 88 237 7.0 0.0 0.00 0.00 0.00 59 1014.9
20260510195214 88 227 7.0 0.0 0.00 0.00 0.00 58 1015.2
20260510194711 88 3 9.0 0.0 0.00 0.00 0.00 57 1015.2
20260510194213 89 156 8.0 0.0 0.00 0.00 0.00 57 1015.2
20260510193711 89 92 8.0 0.0 0.00 0.00 0.00 56 1015.2
20260510193211 88 85 6.0 0.0 0.00 0.00 0.00 57 1015.2
20260510192713 88 103 9.0 0.0 0.00 0.00 0.00 58 1015.2
20260510192213 89 49 7.0 0.0 0.00 0.00 0.00 58 1015.2
20260510191711 89 88 7.0 0.0 0.00 0.00 0.00 60 1015.2
20260510191210 88 107 6.0 0.0 0.00 0.00 0.00 59 1015.6
20260510190712 88 129 6.0 0.0 0.00 0.00 0.00 61 1015.6
20260510190215 88 103 7.0 0.0 0.00 0.00 0.00 61 1015.6
20260510185713 88 68 7.0 0.0 0.00 0.00 0.00 61 1015.6
20260510185211 88 155 6.0 0.0 0.00 0.00 0.00 62 1015.6
20260510184712 89 125 7.0 0.0 0.00 0.00 0.00 59 1015.9
20260510184211 88 48 8.0 0.0 0.00 0.00 0.00 61 1015.9
20260510183711 87 224 6.0 0.0 0.00 0.00 0.00 62 1015.9
20260510183213 87 108 6.0 0.0 0.00 0.00 0.00 61 1015.9
20260510182712 87 127 9.0 0.0 0.00 0.00 0.00 62 1016.3
20260510182215 86 86 10.0 0.0 0.00 0.00 0.00 62 1016.3
20260510181717 87 216 9.0 0.0 0.00 0.00 0.00 63 1016.3
20260510181215 87 100 9.0 0.0 0.00 0.00 0.00 63 1016.3
20260510180714 86 80 8.0 0.0 0.00 0.00 0.00 65 1016.3
20260510180214 86 250 8.0 0.0 0.00 0.00 0.00 65 1016.6
20260510175716 85 97 8.0 0.0 0.00 0.00 0.00 65 1016.3
20260510175212 85 125 8.0 0.0 0.00 0.00 0.00 66 1016.3
20260510174714 86 126 7.0 0.0 0.00 0.00 0.00 64 1016.6
20260510174212 86 61 8.0 0.0 0.00 0.00 0.00 65 1016.3
20260510173711 86 22 8.0 0.0 0.00 0.00 0.00 62 1016.3
20260510173214 87 86 8.0 0.0 0.00 0.00 0.00 63 1016.3
20260510172713 86 159 8.0 0.0 0.00 0.00 0.00 63 1016.3
20260510172216 86 123 6.0 0.0 0.00 0.00 0.00 65 1016.6
20260510171714 85 310 6.0 0.0 0.00 0.00 0.00 64 1016.3
20260510171211 87 208 5.0 0.0 0.00 0.00 0.00 64 1016.3
20260510170711 86 301 7.0 0.0 0.00 0.00 0.00 64 1016.3
20260510170213 85 77 5.0 0.0 0.00 0.00 0.00 66 1016.3
20260510165713 85 107 7.0 0.0 0.00 0.00 0.00 65 1016.3
20260510165211 85 58 7.0 0.0 0.00 0.00 0.00 64 1016.3
20260510164713 85 105 8.0 0.0 0.00 0.00 0.00 68 1016.3
20260510164212 84 182 7.0 0.0 0.00 0.00 0.00 68 1016.3
20260510163712 84 97 6.0 0.0 0.00 0.00 0.00 68 1016.3
20260510163211 83 95 7.0 0.0 0.00 0.00 0.00 69 1016.3
20260510162712 82 201 7.0 0.0 0.00 0.00 0.00 68 1016.3
20260510162215 83 57 6.0 0.0 0.00 0.00 0.00 69 1016.3
20260510161713 83 97 5.0 0.0 0.00 0.00 0.00 70 1015.9
20260510161213 82 88 8.0 0.0 0.00 0.00 0.00 71 1015.9
20260510160712 82 106 8.0 0.0 0.00 0.00 0.00 71 1015.9
20260510160210 81 110 8.0 0.0 0.00 0.00 0.00 72 1015.9
20260510155714 81 102 9.0 0.0 0.00 0.00 0.00 71 1015.9
20260510155211 81 116 8.0 0.0 0.00 0.00 0.00 71 1015.6
20260510154712 81 187 5.0 0.0 0.00 0.00 0.00 72 1015.6
20260510154215 81 81 9.0 0.0 0.00 0.00 0.00 73 1015.6
20260510153714 81 77 7.0 0.0 0.00 0.00 0.00 73 1015.9
20260510153210 80 189 4.0 0.0 0.00 0.00 0.00 75 1015.9
20260510152713 80 89 6.0 0.0 0.00 0.00 0.00 74 1015.6
20260510152212 80 88 6.0 0.0 0.00 0.00 0.00 76 1015.6
20260510151712 80 180 8.0 0.0 0.00 0.00 0.00 75 1015.6
20260510151214 79 66 7.0 0.0 0.00 0.00 0.00 77 1015.6
20260510150712 79 107 4.0 0.0 0.00 0.00 0.00 78 1015.6
20260510150212 78 97 5.0 0.0 0.00 0.00 0.00 78 1015.6
20260510145715 78 148 5.0 0.0 0.00 0.00 0.00 77 1015.6
20260510145213 78 158 3.0 0.0 0.00 0.00 0.00 79 1015.6
20260510144713 77 301 3.0 0.0 0.00 0.00 0.00 80 1015.6
20260510144210 77 144 3.0 0.0 0.00 0.00 0.00 81 1015.2
20260510143713 76 127 5.0 0.0 0.00 0.00 0.00 82 1015.2
20260510143212 76 88 6.0 0.0 0.00 0.00 0.00 81 1015.2
20260510142714 76 120 4.0 0.0 0.00 0.00 0.00 84 1015.2
20260510142211 76 104 4.0 0.0 0.00 0.00 0.00 83 1015.2
20260510141713 75 136 4.0 0.0 0.00 0.00 0.00 84 1014.9
20260510141215 75 0 6.0 0.0 0.00 0.00 0.00 84 1014.9
20260510140714 75 112 4.0 0.0 0.00 0.00 0.00 85 1014.9
20260510140213 75 129 4.0 0.0 0.00 0.00 0.00 85 1014.9
20260510135712 74 299 6.0 0.0 0.00 0.00 0.00 86 1015.2
20260510135211 74 150 5.0 0.0 0.00 0.00 0.00 87 1014.9
20260510134714 73 99 4.0 0.0 0.00 0.00 0.00 87 1014.9
20260510134214 73 129 4.0 0.0 0.00 0.00 0.00 87 1014.9
20260510133713 73 149 4.0 0.0 0.00 0.00 0.00 88 1014.9
20260510133211 72 99 4.0 0.0 0.00 0.00 0.00 89 1014.9
20260510132715 72 106 0.0 0.0 0.00 0.00 0.00 90 1014.9
20260510132214 72 172 2.0 0.0 0.00 0.00 0.00 91 1014.6
20260510131713 71 210 3.0 0.0 0.00 0.00 0.00 92 1014.6
20260510131214 70 185 0.0 0.0 0.00 0.00 0.00 92 1014.6
20260510130713 70 209 0.0 0.0 0.00 0.00 0.00 93 1014.6
20260510130213 70 216 0.0 0.0 0.00 0.00 0.00 93 1014.6
20260510125714 69 203 0.0 0.0 0.00 0.00 0.00 93 1014.6
20260510125213 69 181 0.0 0.0 0.00 0.00 0.00 93 1014.2
20260510124714 68 168 0.0 0.0 0.00 0.00 0.00 93 1014.6
20260510124214 68 214 0.0 0.0 0.00 0.00 0.00 93 1014.6
20260510123713 67 197 0.0 0.0 0.00 0.00 0.00 93 1014.6
20260510123243 67 178 0.0 0.0 0.00 0.00 0.00 93 1014.2
20260510122743 67 179 0.0 0.0 0.00 0.00 0.00 93 1014.2
20260510122242 67 197 0.0 0.0 0.00 0.00 0.00 92 1014.2
20260510121744 67 195 0.0 0.0 0.00 0.00 0.00 92 1014.2
20260510121241 66 202 0.0 0.0 0.00 0.00 0.00 92 1014.2
20260510120741 67 174 0.0 0.0 0.00 0.00 0.00 92 1014.2
20260510120241 66 205 0.0 0.0 0.00 0.00 0.00 92 1014.2
20260510115741 66 195 0.0 0.0 0.00 0.00 0.00 92 1014.2
20260510115241 66 202 0.0 0.0 0.00 0.00 0.00 92 1014.2
20260510114741 66 194 0.0 0.0 0.00 0.00 0.00 92 1014.2
20260510114243 66 199 0.0 0.0 0.00 0.00 0.00 92 1014.2
20260510113741 66 201 0.0 0.0 0.00 0.00 0.00 92 1014.2
20260510113243 66 187 0.0 0.0 0.00 0.00 0.00 92 1014.2
20260510112742 66 206 0.0 0.0 0.00 0.00 0.00 92 1014.2
20260510112240 66 171 0.0 0.0 0.00 0.00 0.00 92 1014.2
20260510111741 66 216 0.0 0.0 0.00 0.00 0.00 92 1014.2
20260510111240 66 165 0.0 0.0 0.00 0.00 0.00 92 1014.2
20260510110742 66 204 0.0 0.0 0.00 0.00 0.00 92 1014.2
20260510110242 66 201 0.0 0.0 0.00 0.00 0.00 92 1014.2
20260510105742 66 199 0.0 0.0 0.00 0.00 0.00 92 1014.2
20260510105241 66 186 0.0 0.0 0.00 0.00 0.00 92 1014.2
20260510104742 66 176 0.0 0.0 0.00 0.00 0.00 92 1014.2
20260510104241 66 182 0.0 0.0 0.00 0.00 0.00 92 1013.9
20260510103742 66 206 0.0 0.0 0.00 0.00 0.00 92 1014.2
20260510103241 65 166 0.0 0.0 0.00 0.00 0.00 92 1014.2
20260510102740 65 194 0.0 0.0 0.00 0.00 0.00 92 1014.2
20260510102241 65 154 0.0 0.0 0.00 0.00 0.00 91 1014.2
20260510101742 65 180 0.0 0.0 0.00 0.00 0.00 91 1014.2
20260510101241 65 157 0.0 0.0 0.00 0.00 0.00 91 1013.9
20260510100741 65 173 0.0 0.0 0.00 0.00 0.00 91 1014.2
20260510100240 65 162 0.0 0.0 0.00 0.00 0.00 91 1014.2
20260510095740 65 160 0.0 0.0 0.00 0.00 0.00 90 1014.2
20260510095241 65 184 0.0 0.0 0.00 0.00 0.00 90 1014.2
20260510094739 65 185 0.0 0.0 0.00 0.00 0.00 90 1014.2
20260510094238 66 161 0.0 0.0 0.00 0.00 0.00 89 1014.2
20260510093738 66 188 0.0 0.0 0.00 0.00 0.00 89 1014.2
20260510093238 66 190 0.0 0.0 0.00 0.00 0.00 89 1014.2
20260510092740 66 159 0.0 0.0 0.00 0.00 0.00 89 1014.2
20260510092236 66 177 0.0 0.0 0.00 0.00 0.00 88 1014.2
20260510091739 67 151 0.0 0.0 0.00 0.00 0.00 88 1013.9
20260510091237 67 190 0.0 0.0 0.00 0.00 0.00 88 1013.9
20260510090753 67 168 0.0 0.0 0.00 0.00 0.00 88 1013.9
20260510090538 67 177 0.0 0.0 0.00 0.00 0.00 87 1013.9
20260510085738 67 165 0.0 0.0 0.00 0.00 0.00 87 1013.9
20260510085236 68 182 0.0 0.0 0.00 0.00 0.00 87 1013.9
20260510084736 68 169 0.0 0.0 0.00 0.00 0.00 87 1013.9
20260510084236 68 167 0.0 0.0 0.00 0.00 0.00 87 1013.5
20260510083736 68 165 0.0 0.0 0.00 0.00 0.00 87 1013.5
20260510083238 68 181 0.0 0.0 0.00 0.00 0.00 86 1013.9
20260510082736 68 176 0.0 0.0 0.00 0.00 0.00 86 1013.9
20260510082238 68 169 0.0 0.0 0.00 0.00 0.00 85 1013.9
20260510081735 69 173 0.0 0.0 0.00 0.00 0.00 85 1013.9
20260510081237 70 189 0.0 0.0 0.00 0.00 0.00 84 1013.9
20260510080735 70 189 0.0 0.0 0.00 0.00 0.00 84 1013.9
20260510080235 70 208 0.0 0.0 0.00 0.00 0.00 83 1013.9
20260510075733 70 195 0.0 0.0 0.00 0.00 0.00 83 1013.9
20260510075233 71 190 0.0 0.0 0.00 0.00 0.00 83 1013.9
20260510074735 71 180 0.0 0.0 0.00 0.00 0.00 83 1013.9
20260510074237 71 171 0.0 0.0 0.00 0.00 0.00 82 1013.9
20260510073736 72 184 0.0 0.0 0.00 0.00 0.00 82 1013.9
20260510073233 72 199 0.0 0.0 0.00 0.00 0.00 82 1013.9
20260510072734 72 183 0.0 0.0 0.00 0.00 0.00 82 1013.9
20260510072234 72 198 0.0 0.0 0.00 0.00 0.00 82 1013.9
20260510071734 72 212 0.0 0.0 0.00 0.00 0.00 82 1013.9
20260510071235 73 200 0.0 0.0 0.00 0.00 0.00 81 1013.9
20260510070733 73 177 2.0 0.0 0.00 0.00 0.00 81 1013.9
20260510070234 73 196 0.0 0.0 0.00 0.00 0.00 81 1013.9
20260510065737 73 183 1.0 0.0 0.00 0.00 0.00 81 1013.9
20260510065235 73 194 1.0 0.0 0.00 0.00 0.00 81 1013.9
20260510064732 73 212 2.0 0.0 0.00 0.00 0.00 81 1013.9
20260510064233 73 215 1.0 0.0 0.00 0.00 0.00 81 1013.9
20260510063732 73 208 0.0 0.0 0.00 0.00 0.00 81 1013.9
20260510063230 73 199 2.0 0.0 0.00 0.00 0.00 81 1013.9
20260510062731 73 143 3.0 0.0 0.00 0.00 0.00 81 1013.9
20260510062233 73 204 0.0 0.0 0.00 0.00 0.00 80 1013.9
20260510061732 74 211 0.0 0.0 0.00 0.00 0.00 80 1013.9
20260510061233 74 200 0.0 0.0 0.00 0.00 0.00 80 1014.2
20260510060732 74 216 0.0 0.0 0.00 0.00 0.00 80 1013.9
20260510060230 74 189 2.0 0.0 0.00 0.00 0.00 80 1013.9
20260510055729 74 198 2.0 0.0 0.00 0.00 0.00 79 1013.9
20260510055231 74 192 2.0 0.0 0.00 0.00 0.00 79 1013.9
20260510054729 74 210 2.0 0.0 0.00 0.00 0.00 79 1013.9
20260510054232 74 189 2.0 0.0 0.00 0.00 0.00 79 1013.9
20260510053737 75 202 2.0 0.0 0.00 0.00 0.00 79 1013.9
20260510053232 75 199 3.0 0.0 0.00 0.00 0.00 79 1013.5
20260510052729 74 143 4.0 0.0 0.00 0.00 0.00 79 1013.5
20260510052231 74 148 2.0 0.0 0.00 0.00 0.00 79 1013.5
20260510051730 74 211 2.0 0.0 0.00 0.00 0.00 79 1013.5
20260510051230 74 196 2.0 0.0 0.00 0.00 0.00 79 1013.5
20260510050729 74 171 3.0 0.0 0.00 0.00 0.00 80 1013.5
20260510050231 74 180 3.0 0.0 0.00 0.00 0.00 80 1013.5
20260510045729 74 171 2.0 0.0 0.00 0.00 0.00 80 1013.5
20260510045230 74 180 1.0 0.0 0.00 0.00 0.00 80 1013.5
20260510044728 74 164 2.0 0.0 0.00 0.00 0.00 80 1013.5
20260510044226 74 210 2.0 0.0 0.00 0.00 0.00 80 1013.5
20260510043728 73 202 2.0 0.0 0.00 0.00 0.00 81 1013.2
20260510043227 73 181 2.0 0.0 0.00 0.00 0.00 81 1013.2
20260510042727 73 180 2.0 0.0 0.00 0.00 0.00 81 1013.2
20260510042226 73 169 2.0 0.0 0.00 0.00 0.00 81 1013.2
20260510041728 73 186 2.0 0.0 0.00 0.00 0.00 81 1013.2
20260510041227 73 168 2.0 0.0 0.00 0.00 0.00 81 1013.2
20260510040730 73 159 3.0 0.0 0.00 0.00 0.00 81 1013.2
20260510040226 73 165 2.0 0.0 0.00 0.00 0.00 80 1013.2
20260510035729 73 153 2.0 0.0 0.00 0.00 0.00 80 1013.2
20260510035228 73 167 2.0 0.0 0.00 0.00 0.00 79 1013.2
20260510034727 73 176 2.0 0.0 0.00 0.00 0.00 79 1013.2
20260510034227 73 175 2.0 0.0 0.00 0.00 0.00 78 1013.2
20260510033726 74 180 2.0 0.0 0.00 0.00 0.00 78 1013.2
20260510033228 74 179 2.0 0.0 0.00 0.00 0.00 77 1012.9
20260510032728 74 181 2.0 0.0 0.00 0.00 0.00 77 1012.9
20260510032225 75 168 2.0 0.0 0.00 0.00 0.00 76 1012.9
20260510031728 75 157 2.0 0.0 0.00 0.00 0.00 75 1012.9
20260510031227 76 163 2.0 0.0 0.00 0.00 0.00 74 1012.9
20260510030726 76 168 2.0 0.0 0.00 0.00 0.00 73 1012.9
20260510030225 77 185 2.0 0.0 0.00 0.00 0.00 72 1012.9
20260510025725 77 181 2.0 0.0 0.00 0.00 0.00 71 1012.9
20260510025224 78 207 2.0 0.0 0.00 0.00 0.00 71 1012.5
20260510024726 78 189 2.0 0.0 0.00 0.00 0.00 70 1012.5
20260510024225 79 188 2.0 0.0 0.00 0.00 0.00 69 1012.5
20260510023726 79 188 2.0 0.0 0.00 0.00 0.00 68 1012.5
20260510023225 79 187 2.0 0.0 0.00 0.00 0.00 68 1012.5
20260510022724 80 171 2.0 0.0 0.00 0.00 0.00 67 1012.5
20260510022225 80 180 2.0 0.0 0.00 0.00 0.00 67 1012.2
20260510021725 80 168 3.0 0.0 0.00 0.00 0.00 66 1012.2
20260510021224 80 169 4.0 0.0 0.00 0.00 0.00 67 1012.2
20260510020724 80 188 3.0 0.0 0.00 0.00 0.00 67 1012.2
20260510020224 80 149 2.0 0.0 0.00 0.00 0.00 67 1011.9
20260510015725 80 202 2.0 0.0 0.00 0.00 0.00 67 1011.9
20260510015224 80 205 3.0 0.0 0.00 0.00 0.00 71 1011.9
20260510014726 80 197 2.0 0.0 0.00 0.00 0.00 71 1011.9
20260510014222 80 138 3.0 0.0 0.00 0.00 0.00 72 1011.5
20260510013722 81 168 2.0 0.0 0.00 0.00 0.00 71 1011.5
20260510013222 81 190 0.0 0.0 0.00 0.00 0.00 70 1011.5
20260510012725 81 189 0.0 0.0 0.00 0.00 0.00 71 1011.5
20260510012224 82 190 2.0 0.0 0.00 0.00 0.00 69 1011.5
20260510011726 82 175 2.0 0.0 0.00 0.00 0.00 69 1011.2
20260510011221 82 173 2.0 0.0 0.00 0.00 0.00 67 1011.2
20260510010722 83 169 2.0 0.0 0.00 0.00 0.00 65 1011.2
20260510010224 83 183 2.0 0.0 0.00 0.00 0.00 64 1011.2
20260510005722 84 166 3.0 0.0 0.00 0.00 0.00 63 1011.2
20260510005222 84 177 2.0 0.0 0.00 0.00 0.00 62 1011.2
20260510004722 85 183 2.0 0.0 0.00 0.00 0.00 61 1010.8
20260510004222 85 171 3.0 0.0 0.00 0.00 0.00 61 1010.8
20260510003720 85 167 2.0 0.0 0.00 0.00 0.00 60 1010.8
20260510003221 86 188 2.0 0.0 0.00 0.00 0.00 59 1010.8
20260510002721 86 160 5.0 0.0 0.00 0.00 0.00 57 1010.8
20260510002220 87 126 4.0 0.0 0.00 0.00 0.00 57 1010.5
20260510001722 87 171 4.0 0.0 0.00 0.00 0.00 57 1010.5
20260510001219 87 145 4.0 0.0 0.00 0.00 0.00 56 1010.5
20260510000720 87 162 3.0 0.0 0.00 0.00 0.00 58 1010.5
20260510000220 87 208 3.0 0.0 0.00 0.00 0.00 56 1010.5
20260509235719 87 229 3.0 0.0 0.00 0.00 0.00 56 1010.5
20260509235219 88 152 3.0 0.0 0.00 0.00 0.00 54 1010.5
20260509234722 88 177 3.0 0.0 0.00 0.00 0.00 55 1010.5
20260509234218 88 186 3.0 0.0 0.00 0.00 0.00 53 1010.5
20260509233718 88 132 3.0 0.0 0.00 0.00 0.00 54 1010.8
20260509233219 88 179 5.0 0.0 0.00 0.00 0.00 53 1010.8
20260509232719 89 161 3.0 0.0 0.00 0.00 0.00 53 1010.8
20260509232217 88 158 5.0 0.0 0.00 0.00 0.00 52 1010.5
20260509231717 88 218 3.0 0.0 0.00 0.00 0.00 54 1010.8
20260509231218 89 193 4.0 0.0 0.00 0.00 0.00 53 1010.8